Year,Month,Day,Hour,Minute,Value (Times are PST for temperature in C)
2011,09,03,00,00,10.10
2011,09,03,00,01,10.10
2011,09,03,00,02,10.00
2011,09,03,00,03,10.00
2011,09,03,00,04,10.00
2011,09,03,00,05,9.90
2011,09,03,00,06,9.90
2011,09,03,00,07,9.90
2011,09,03,00,08,9.80
2011,09,03,00,09,9.80
2011,09,03,00,10,9.80
2011,09,03,00,11,9.80
2011,09,03,00,12,9.80
2011,09,03,00,13,9.70
2011,09,03,00,14,9.70
2011,09,03,00,15,9.70
2011,09,03,00,16,9.70
2011,09,03,00,17,9.70
2011,09,03,00,18,9.70
2011,09,03,00,19,9.70
2011,09,03,00,20,9.70
2011,09,03,00,21,9.60
2011,09,03,00,22,9.60
2011,09,03,00,23,9.60
2011,09,03,00,24,9.60
2011,09,03,00,25,9.60
2011,09,03,00,26,9.60
2011,09,03,00,27,9.50
2011,09,03,00,28,9.50
2011,09,03,00,29,9.50
2011,09,03,00,30,9.50
2011,09,03,00,31,9.50
2011,09,03,00,32,9.50
2011,09,03,00,33,9.40
2011,09,03,00,34,9.40
2011,09,03,00,35,9.40
2011,09,03,00,36,9.40
2011,09,03,00,37,9.40
2011,09,03,00,38,9.30
2011,09,03,00,39,9.30
2011,09,03,00,40,9.30
2011,09,03,00,41,9.30
2011,09,03,00,42,9.30
2011,09,03,00,43,9.30
2011,09,03,00,44,9.30
2011,09,03,00,45,9.20
2011,09,03,00,46,9.20
2011,09,03,00,47,9.20
2011,09,03,00,48,9.20
2011,09,03,00,49,9.20
2011,09,03,00,50,9.20
2011,09,03,00,51,9.20
2011,09,03,00,52,9.20
2011,09,03,00,53,9.20
2011,09,03,00,54,9.20
2011,09,03,00,55,9.20
2011,09,03,00,56,9.30
2011,09,03,00,57,9.30
2011,09,03,00,58,9.40
2011,09,03,00,59,9.40
2011,09,03,01,00,9.40
2011,09,03,01,01,9.50
2011,09,03,01,02,9.50
2011,09,03,01,03,9.50
2011,09,03,01,04,9.50
2011,09,03,01,05,9.50
2011,09,03,01,06,9.50
2011,09,03,01,07,9.40
2011,09,03,01,08,9.40
2011,09,03,01,09,9.30
2011,09,03,01,10,9.30
2011,09,03,01,11,9.20
2011,09,03,01,12,9.20
2011,09,03,01,13,9.20
2011,09,03,01,14,9.10
2011,09,03,01,15,9.10
2011,09,03,01,16,9.10
2011,09,03,01,17,9.10
2011,09,03,01,18,9.10
2011,09,03,01,19,9.10
2011,09,03,01,20,9.10
2011,09,03,01,21,9.10
2011,09,03,01,22,9.20
2011,09,03,01,23,9.20
2011,09,03,01,24,9.30
2011,09,03,01,25,9.30
2011,09,03,01,26,9.40
2011,09,03,01,27,9.40
2011,09,03,01,28,9.50
2011,09,03,01,29,9.50
2011,09,03,01,30,9.60
2011,09,03,01,31,9.60
2011,09,03,01,32,9.60
2011,09,03,01,33,9.60
2011,09,03,01,34,9.60
2011,09,03,01,35,9.70
2011,09,03,01,36,9.70
2011,09,03,01,37,9.70
2011,09,03,01,38,9.70
2011,09,03,01,39,9.70
2011,09,03,01,40,9.70
2011,09,03,01,41,9.60
2011,09,03,01,42,9.60
2011,09,03,01,43,9.60
2011,09,03,01,44,9.60
2011,09,03,01,45,9.60
2011,09,03,01,46,9.50
2011,09,03,01,47,9.50
2011,09,03,01,48,9.40
2011,09,03,01,49,9.40
2011,09,03,01,50,9.40
2011,09,03,01,51,9.40
2011,09,03,01,52,9.30
2011,09,03,01,53,9.30
2011,09,03,01,54,9.30
2011,09,03,01,55,9.30
2011,09,03,01,56,9.30
2011,09,03,01,57,9.30
2011,09,03,01,58,9.30
2011,09,03,01,59,9.30
2011,09,03,02,00,9.30
2011,09,03,02,01,9.30
2011,09,03,02,02,9.20
2011,09,03,02,03,9.20
2011,09,03,02,04,9.20
2011,09,03,02,05,9.20
2011,09,03,02,06,9.20
2011,09,03,02,07,9.10
2011,09,03,02,08,9.10
2011,09,03,02,09,9.10
2011,09,03,02,10,9.10
2011,09,03,02,11,9.00
2011,09,03,02,12,9.00
2011,09,03,02,13,9.00
2011,09,03,02,14,9.00
2011,09,03,02,15,8.90
2011,09,03,02,16,8.90
2011,09,03,02,17,9.00
2011,09,03,02,18,9.00
2011,09,03,02,19,9.00
2011,09,03,02,20,9.00
2011,09,03,02,21,9.00
2011,09,03,02,22,9.00
2011,09,03,02,23,9.00
2011,09,03,02,24,9.00
2011,09,03,02,25,9.00
2011,09,03,02,26,8.90
2011,09,03,02,27,8.90
2011,09,03,02,28,8.90
2011,09,03,02,29,8.90
2011,09,03,02,30,8.90
2011,09,03,02,31,8.90
2011,09,03,02,32,8.90
2011,09,03,02,33,8.90
2011,09,03,02,34,8.80
2011,09,03,02,35,8.80
2011,09,03,02,36,8.80
2011,09,03,02,37,8.80
2011,09,03,02,38,8.80
2011,09,03,02,39,8.80
2011,09,03,02,40,8.80
2011,09,03,02,41,8.80
2011,09,03,02,42,8.80
2011,09,03,02,43,8.70
2011,09,03,02,44,8.70
2011,09,03,02,45,8.70
2011,09,03,02,46,8.70
2011,09,03,02,47,8.60
2011,09,03,02,48,8.60
2011,09,03,02,49,8.60
2011,09,03,02,50,8.60
2011,09,03,02,51,8.60
2011,09,03,02,52,8.60
2011,09,03,02,53,8.60
2011,09,03,02,54,8.50
2011,09,03,02,55,8.50
2011,09,03,02,56,8.50
2011,09,03,02,57,8.50
2011,09,03,02,58,8.40
2011,09,03,02,59,8.40
2011,09,03,03,00,8.40
2011,09,03,03,01,8.40
2011,09,03,03,02,8.40
2011,09,03,03,03,8.40
2011,09,03,03,04,8.40
2011,09,03,03,05,8.40
2011,09,03,03,06,8.30
2011,09,03,03,07,8.30
2011,09,03,03,08,8.30
2011,09,03,03,09,8.30
2011,09,03,03,10,8.30
2011,09,03,03,11,8.30
2011,09,03,03,12,8.30
2011,09,03,03,13,8.30
2011,09,03,03,14,8.30
2011,09,03,03,15,8.30
2011,09,03,03,16,8.30
2011,09,03,03,17,8.30
2011,09,03,03,18,8.30
2011,09,03,03,19,8.30
2011,09,03,03,20,8.30
2011,09,03,03,21,8.30
2011,09,03,03,22,8.30
2011,09,03,03,23,8.30
2011,09,03,03,24,8.30
2011,09,03,03,25,8.30
2011,09,03,03,26,8.30
2011,09,03,03,27,8.40
2011,09,03,03,28,8.40
2011,09,03,03,29,8.40
2011,09,03,03,30,8.40
2011,09,03,03,31,8.30
2011,09,03,03,32,8.30
2011,09,03,03,33,8.20
2011,09,03,03,34,8.20
2011,09,03,03,35,8.20
2011,09,03,03,36,8.10
2011,09,03,03,37,8.10
2011,09,03,03,38,8.10
2011,09,03,03,39,8.10
2011,09,03,03,40,8.10
2011,09,03,03,41,8.10
2011,09,03,03,42,8.10
2011,09,03,03,43,8.10
2011,09,03,03,44,8.10
2011,09,03,03,45,8.10
2011,09,03,03,46,8.10
2011,09,03,03,47,8.10
2011,09,03,03,48,8.10
2011,09,03,03,49,8.00
2011,09,03,03,50,8.00
2011,09,03,03,51,8.00
2011,09,03,03,52,8.00
2011,09,03,03,53,8.00
2011,09,03,03,54,8.00
2011,09,03,03,55,8.10
2011,09,03,03,56,8.10
2011,09,03,03,57,8.10
2011,09,03,03,58,8.10
2011,09,03,03,59,8.20
2011,09,03,04,00,8.20
2011,09,03,04,01,8.20
2011,09,03,04,02,8.20
2011,09,03,04,03,8.20
2011,09,03,04,04,8.10
2011,09,03,04,05,8.10
2011,09,03,04,06,8.10
2011,09,03,04,07,8.10
2011,09,03,04,08,8.10
2011,09,03,04,09,8.10
2011,09,03,04,10,8.00
2011,09,03,04,11,8.00
2011,09,03,04,12,8.00
2011,09,03,04,13,8.00
2011,09,03,04,14,8.00
2011,09,03,04,15,8.00
2011,09,03,04,16,8.00
2011,09,03,04,17,7.90
2011,09,03,04,18,7.90
2011,09,03,04,19,7.90
2011,09,03,04,20,7.90
2011,09,03,04,21,7.90
2011,09,03,04,22,7.90
2011,09,03,04,23,7.90
2011,09,03,04,24,7.90
2011,09,03,04,25,7.90
2011,09,03,04,26,7.90
2011,09,03,04,27,7.90
2011,09,03,04,28,7.90
2011,09,03,04,29,7.80
2011,09,03,04,30,7.80
2011,09,03,04,31,7.80
2011,09,03,04,32,7.80
2011,09,03,04,33,7.80
2011,09,03,04,34,7.80
2011,09,03,04,35,7.80
2011,09,03,04,36,7.80
2011,09,03,04,37,7.80
2011,09,03,04,38,7.80
2011,09,03,04,39,7.80
2011,09,03,04,40,7.80
2011,09,03,04,41,7.90
2011,09,03,04,42,7.90
2011,09,03,04,43,7.90
2011,09,03,04,44,7.90
2011,09,03,04,45,7.90
2011,09,03,04,46,7.90
2011,09,03,04,47,7.90
2011,09,03,04,48,8.00
2011,09,03,04,49,8.00
2011,09,03,04,50,8.10
2011,09,03,04,51,8.10
2011,09,03,04,52,8.20
2011,09,03,04,53,8.10
2011,09,03,04,54,8.10
2011,09,03,04,55,8.10
2011,09,03,04,56,8.10
2011,09,03,04,57,8.10
2011,09,03,04,58,8.20
2011,09,03,04,59,8.20
2011,09,03,05,00,8.20
2011,09,03,05,01,8.20
2011,09,03,05,02,8.30
2011,09,03,05,03,8.40
2011,09,03,05,04,8.60
2011,09,03,05,05,8.70
2011,09,03,05,06,8.70
2011,09,03,05,07,8.70
2011,09,03,05,08,8.70
2011,09,03,05,09,8.70
2011,09,03,05,10,8.70
2011,09,03,05,11,8.70
2011,09,03,05,12,8.70
2011,09,03,05,13,8.70
2011,09,03,05,14,8.60
2011,09,03,05,15,8.60
2011,09,03,05,16,8.60
2011,09,03,05,17,8.70
2011,09,03,05,18,8.70
2011,09,03,05,19,8.70
2011,09,03,05,20,8.60
2011,09,03,05,21,8.50
2011,09,03,05,22,8.50
2011,09,03,05,23,8.50
2011,09,03,05,24,8.60
2011,09,03,05,25,8.60
2011,09,03,05,26,8.60
2011,09,03,05,27,8.60
2011,09,03,05,28,8.60
2011,09,03,05,29,8.70
2011,09,03,05,30,8.60
2011,09,03,05,31,8.70
2011,09,03,05,32,8.70
2011,09,03,05,33,8.70
2011,09,03,05,34,8.70
2011,09,03,05,35,8.70
2011,09,03,05,36,8.60
2011,09,03,05,37,8.60
2011,09,03,05,38,8.50
2011,09,03,05,39,8.50
2011,09,03,05,40,8.40
2011,09,03,05,41,8.40
2011,09,03,05,42,8.40
2011,09,03,05,43,8.40
2011,09,03,05,44,8.40
2011,09,03,05,45,8.40
2011,09,03,05,46,8.40
2011,09,03,05,47,8.50
2011,09,03,05,48,8.50
2011,09,03,05,49,8.60
2011,09,03,05,50,8.60
2011,09,03,05,51,8.70
2011,09,03,05,52,8.70
2011,09,03,05,53,8.70
2011,09,03,05,54,8.70
2011,09,03,05,55,8.70
2011,09,03,05,56,8.70
2011,09,03,05,57,8.70
2011,09,03,05,58,8.70
2011,09,03,05,59,8.60
2011,09,03,06,00,8.60
2011,09,03,06,01,8.50
2011,09,03,06,02,8.40
2011,09,03,06,03,8.40
2011,09,03,06,04,8.40
2011,09,03,06,05,8.40
2011,09,03,06,06,8.40
2011,09,03,06,07,8.40
2011,09,03,06,08,8.40
2011,09,03,06,09,8.40
2011,09,03,06,10,8.40
2011,09,03,06,11,8.40
2011,09,03,06,12,8.50
2011,09,03,06,13,8.50
2011,09,03,06,14,8.50
2011,09,03,06,15,8.50
2011,09,03,06,16,8.60
2011,09,03,06,17,8.60
2011,09,03,06,18,8.60
2011,09,03,06,19,8.60
2011,09,03,06,20,8.60
2011,09,03,06,21,8.60
2011,09,03,06,22,8.50
2011,09,03,06,23,8.50
2011,09,03,06,24,8.60
2011,09,03,06,25,8.60
2011,09,03,06,26,8.70
2011,09,03,06,27,8.70
2011,09,03,06,28,8.60
2011,09,03,06,29,8.50
2011,09,03,06,30,8.50
2011,09,03,06,31,8.40
2011,09,03,06,32,8.40
2011,09,03,06,33,8.30
2011,09,03,06,34,8.30
2011,09,03,06,35,8.40
2011,09,03,06,36,8.40
2011,09,03,06,37,8.50
2011,09,03,06,38,8.50
2011,09,03,06,39,8.60
2011,09,03,06,40,8.70
2011,09,03,06,41,8.70
2011,09,03,06,42,8.80
2011,09,03,06,43,8.80
2011,09,03,06,44,8.80
2011,09,03,06,45,8.80
2011,09,03,06,46,8.80
2011,09,03,06,47,8.80
2011,09,03,06,48,8.90
2011,09,03,06,49,8.90
2011,09,03,06,50,9.00
2011,09,03,06,51,9.00
2011,09,03,06,52,9.00
2011,09,03,06,53,9.10
2011,09,03,06,54,9.10
2011,09,03,06,55,9.10
2011,09,03,06,56,9.10
2011,09,03,06,57,9.10
2011,09,03,06,58,9.20
2011,09,03,06,59,9.20
2011,09,03,07,00,9.20
2011,09,03,07,01,9.20
2011,09,03,07,02,9.20
2011,09,03,07,03,9.20
2011,09,03,07,04,9.30
2011,09,03,07,05,9.30
2011,09,03,07,06,9.30
2011,09,03,07,07,9.30
2011,09,03,07,08,9.30
2011,09,03,07,09,9.40
2011,09,03,07,10,9.40
2011,09,03,07,11,9.40
2011,09,03,07,12,9.40
2011,09,03,07,13,9.40
2011,09,03,07,14,9.50
2011,09,03,07,15,9.50
2011,09,03,07,16,9.50
2011,09,03,07,17,9.60
2011,09,03,07,18,9.60
2011,09,03,07,19,9.70
2011,09,03,07,20,9.80
2011,09,03,07,21,9.80
2011,09,03,07,22,9.90
2011,09,03,07,23,9.90
2011,09,03,07,24,9.90
2011,09,03,07,25,9.90
2011,09,03,07,26,9.90
2011,09,03,07,27,9.90
2011,09,03,07,28,10.00
2011,09,03,07,29,10.00
2011,09,03,07,30,10.00
2011,09,03,07,31,10.10
2011,09,03,07,32,10.10
2011,09,03,07,33,10.10
2011,09,03,07,34,10.20
2011,09,03,07,35,10.20
2011,09,03,07,36,10.20
2011,09,03,07,37,10.30
2011,09,03,07,38,10.30
2011,09,03,07,39,10.30
2011,09,03,07,40,10.30
2011,09,03,07,41,10.30
2011,09,03,07,42,10.30
2011,09,03,07,43,10.40
2011,09,03,07,44,10.40
2011,09,03,07,45,10.40
2011,09,03,07,46,10.40
2011,09,03,07,47,10.50
2011,09,03,07,48,10.50
2011,09,03,07,49,10.60
2011,09,03,07,50,10.60
2011,09,03,07,51,10.70
2011,09,03,07,52,10.70
2011,09,03,07,53,10.80
2011,09,03,07,54,10.80
2011,09,03,07,55,10.90
2011,09,03,07,56,10.90
2011,09,03,07,57,11.00
2011,09,03,07,58,11.10
2011,09,03,07,59,11.10
2011,09,03,08,00,11.20
2011,09,03,08,01,11.20
2011,09,03,08,02,11.30
2011,09,03,08,03,11.40
2011,09,03,08,04,11.40
2011,09,03,08,05,11.50
2011,09,03,08,06,11.60
2011,09,03,08,07,11.60
2011,09,03,08,08,11.60
2011,09,03,08,09,11.70
2011,09,03,08,10,11.70
2011,09,03,08,11,11.80
2011,09,03,08,12,11.80
2011,09,03,08,13,11.90
2011,09,03,08,14,12.00
2011,09,03,08,15,12.00
2011,09,03,08,16,12.10
2011,09,03,08,17,12.20
2011,09,03,08,18,12.20
2011,09,03,08,19,12.30
2011,09,03,08,20,12.30
2011,09,03,08,21,12.40
2011,09,03,08,22,12.40
2011,09,03,08,23,12.50
2011,09,03,08,24,12.60
2011,09,03,08,25,12.60
2011,09,03,08,26,12.70
2011,09,03,08,27,12.80
2011,09,03,08,28,12.90
2011,09,03,08,29,13.00
2011,09,03,08,30,13.10
2011,09,03,08,31,13.20
2011,09,03,08,32,13.30
2011,09,03,08,33,13.40
2011,09,03,08,34,13.50
2011,09,03,08,35,13.60
2011,09,03,08,36,13.70
2011,09,03,08,37,13.80
2011,09,03,08,38,13.90
2011,09,03,08,39,14.00
2011,09,03,08,40,14.10
2011,09,03,08,41,14.10
2011,09,03,08,42,14.20
2011,09,03,08,43,14.20
2011,09,03,08,44,14.30
2011,09,03,08,45,14.30
2011,09,03,08,46,14.40
2011,09,03,08,47,14.40
2011,09,03,08,48,14.40
2011,09,03,08,49,14.40
2011,09,03,08,50,14.40
2011,09,03,08,51,14.50
2011,09,03,08,52,14.50
2011,09,03,08,53,14.50
2011,09,03,08,54,14.50
2011,09,03,08,55,14.60
2011,09,03,08,56,14.60
2011,09,03,08,57,14.60
2011,09,03,08,58,14.60
2011,09,03,08,59,14.70
2011,09,03,09,00,14.70
2011,09,03,09,01,14.70
2011,09,03,09,02,14.70
2011,09,03,09,03,14.70
2011,09,03,09,04,14.70
2011,09,03,09,05,14.70
2011,09,03,09,06,14.70
2011,09,03,09,07,14.70
2011,09,03,09,08,14.80
2011,09,03,09,09,14.80
2011,09,03,09,10,14.80
2011,09,03,09,11,14.90
2011,09,03,09,12,15.00
2011,09,03,09,13,15.00
2011,09,03,09,14,15.00
2011,09,03,09,15,15.00
2011,09,03,09,16,15.00
2011,09,03,09,17,15.00
2011,09,03,09,18,15.10
2011,09,03,09,19,15.10
2011,09,03,09,20,15.20
2011,09,03,09,21,15.30
2011,09,03,09,22,15.30
2011,09,03,09,23,15.40
2011,09,03,09,24,15.40
2011,09,03,09,25,15.50
2011,09,03,09,26,15.50
2011,09,03,09,27,15.60
2011,09,03,09,28,15.60
2011,09,03,09,29,15.70
2011,09,03,09,30,15.70
2011,09,03,09,31,15.80
2011,09,03,09,32,15.80
2011,09,03,09,33,15.90
2011,09,03,09,34,15.90
2011,09,03,09,35,16.00
2011,09,03,09,36,16.00
2011,09,03,09,37,16.10
2011,09,03,09,38,16.10
2011,09,03,09,39,16.10
2011,09,03,09,40,16.10
2011,09,03,09,41,16.20
2011,09,03,09,42,16.20
2011,09,03,09,43,16.20
2011,09,03,09,44,16.30
2011,09,03,09,45,16.30
2011,09,03,09,46,16.30
2011,09,03,09,47,16.30
2011,09,03,09,48,16.40
2011,09,03,09,49,16.50
2011,09,03,09,50,16.50
2011,09,03,09,51,16.60
2011,09,03,09,52,16.60
2011,09,03,09,53,16.70
2011,09,03,09,54,16.70
2011,09,03,09,55,16.70
2011,09,03,09,56,16.70
2011,09,03,09,57,16.80
2011,09,03,09,58,16.80
2011,09,03,09,59,16.80
2011,09,03,10,00,16.80
2011,09,03,10,01,16.80
2011,09,03,10,02,16.80
2011,09,03,10,03,16.90
2011,09,03,10,04,17.00
2011,09,03,10,05,17.00
2011,09,03,10,06,17.10
2011,09,03,10,07,17.10
2011,09,03,10,08,17.10
2011,09,03,10,09,17.10
2011,09,03,10,10,17.10
2011,09,03,10,11,17.20
2011,09,03,10,12,17.20
2011,09,03,10,13,17.20
2011,09,03,10,14,17.20
2011,09,03,10,15,17.20
2011,09,03,10,16,17.30
2011,09,03,10,17,17.30
2011,09,03,10,18,17.30
2011,09,03,10,19,17.20
2011,09,03,10,20,17.20
2011,09,03,10,21,17.20
2011,09,03,10,22,17.20
2011,09,03,10,23,17.30
2011,09,03,10,24,17.40
2011,09,03,10,25,17.50
2011,09,03,10,26,17.60
2011,09,03,10,27,17.60
2011,09,03,10,28,17.70
2011,09,03,10,29,17.70
2011,09,03,10,30,17.80
2011,09,03,10,31,17.80
2011,09,03,10,32,17.90
2011,09,03,10,33,17.90
2011,09,03,10,34,18.00
2011,09,03,10,35,18.10
2011,09,03,10,36,18.20
2011,09,03,10,37,18.40
2011,09,03,10,38,18.50
2011,09,03,10,39,18.60
2011,09,03,10,40,18.60
2011,09,03,10,41,18.70
2011,09,03,10,42,18.70
2011,09,03,10,43,18.70
2011,09,03,10,44,18.70
2011,09,03,10,45,18.70
2011,09,03,10,46,18.70
2011,09,03,10,47,18.70
2011,09,03,10,48,18.70
2011,09,03,10,49,18.80
2011,09,03,10,50,18.70
2011,09,03,10,51,18.70
2011,09,03,10,52,18.70
2011,09,03,10,53,18.70
2011,09,03,10,54,18.60
2011,09,03,10,55,18.60
2011,09,03,10,56,18.60
2011,09,03,10,57,18.70
2011,09,03,10,58,18.70
2011,09,03,10,59,18.70
2011,09,03,11,00,18.70
2011,09,03,11,01,18.80
2011,09,03,11,02,18.80
2011,09,03,11,03,18.90
2011,09,03,11,04,18.90
2011,09,03,11,05,19.00
2011,09,03,11,06,19.00
2011,09,03,11,07,19.10
2011,09,03,11,08,19.10
2011,09,03,11,09,19.10
2011,09,03,11,10,19.10
2011,09,03,11,11,19.10
2011,09,03,11,12,19.10
2011,09,03,11,13,19.10
2011,09,03,11,14,19.00
2011,09,03,11,15,18.90
2011,09,03,11,16,19.00
2011,09,03,11,17,19.00
2011,09,03,11,18,19.00
2011,09,03,11,19,19.10
2011,09,03,11,20,19.10
2011,09,03,11,21,19.10
2011,09,03,11,22,19.10
2011,09,03,11,23,19.00
2011,09,03,11,24,19.00
2011,09,03,11,25,19.00
2011,09,03,11,26,18.90
2011,09,03,11,27,18.90
2011,09,03,11,28,18.90
2011,09,03,11,29,18.80
2011,09,03,11,30,18.80
2011,09,03,11,31,18.80
2011,09,03,11,32,18.90
2011,09,03,11,33,18.90
2011,09,03,11,34,19.00
2011,09,03,11,35,19.10
2011,09,03,11,36,19.20
2011,09,03,11,37,19.30
2011,09,03,11,38,19.40
2011,09,03,11,39,19.40
2011,09,03,11,40,19.30
2011,09,03,11,41,19.30
2011,09,03,11,42,19.40
2011,09,03,11,43,19.50
2011,09,03,11,44,19.50
2011,09,03,11,45,19.60
2011,09,03,11,46,19.80
2011,09,03,11,47,19.90
2011,09,03,11,48,20.00
2011,09,03,11,49,20.20
2011,09,03,11,50,20.20
2011,09,03,11,51,20.30
2011,09,03,11,52,20.40
2011,09,03,11,53,20.40
2011,09,03,11,54,20.40
2011,09,03,11,55,20.50
2011,09,03,11,56,20.50
2011,09,03,11,57,20.50
2011,09,03,11,58,20.40
2011,09,03,11,59,20.20
2011,09,03,12,00,20.10
2011,09,03,12,01,20.10
2011,09,03,12,02,20.10
2011,09,03,12,03,20.20
2011,09,03,12,04,20.40
2011,09,03,12,05,20.50
2011,09,03,12,06,20.60
2011,09,03,12,07,20.60
2011,09,03,12,08,20.70
2011,09,03,12,09,20.70
2011,09,03,12,10,20.70
2011,09,03,12,11,20.80
2011,09,03,12,12,20.80
2011,09,03,12,13,20.90
2011,09,03,12,14,21.10
2011,09,03,12,15,21.20
2011,09,03,12,16,21.30
2011,09,03,12,17,21.30
2011,09,03,12,18,21.30
2011,09,03,12,19,21.20
2011,09,03,12,20,21.20
2011,09,03,12,21,21.30
2011,09,03,12,22,21.30
2011,09,03,12,23,21.30
2011,09,03,12,24,21.30
2011,09,03,12,25,21.20
2011,09,03,12,26,21.20
2011,09,03,12,27,21.10
2011,09,03,12,28,21.00
2011,09,03,12,29,20.90
2011,09,03,12,30,20.80
2011,09,03,12,31,20.80
2011,09,03,12,32,20.90
2011,09,03,12,33,21.00
2011,09,03,12,34,21.10
2011,09,03,12,35,21.10
2011,09,03,12,36,21.10
2011,09,03,12,37,21.10
2011,09,03,12,38,20.90
2011,09,03,12,39,20.80
2011,09,03,12,40,20.70
2011,09,03,12,41,20.60
2011,09,03,12,42,20.60
2011,09,03,12,43,20.60
2011,09,03,12,44,20.70
2011,09,03,12,45,20.80
2011,09,03,12,46,20.90
2011,09,03,12,47,20.90
2011,09,03,12,48,21.00
2011,09,03,12,49,21.10
2011,09,03,12,50,21.30
2011,09,03,12,51,21.30
2011,09,03,12,52,21.30
2011,09,03,12,53,21.30
2011,09,03,12,54,21.30
2011,09,03,12,55,21.30
2011,09,03,12,56,21.30
2011,09,03,12,57,21.30
2011,09,03,12,58,21.30
2011,09,03,12,59,21.40
2011,09,03,13,00,21.40
2011,09,03,13,01,21.40
2011,09,03,13,02,21.40
2011,09,03,13,03,21.40
2011,09,03,13,04,21.50
2011,09,03,13,05,21.40
2011,09,03,13,06,21.40
2011,09,03,13,07,21.40
2011,09,03,13,08,21.40
2011,09,03,13,09,21.30
2011,09,03,13,10,21.30
2011,09,03,13,11,21.30
2011,09,03,13,12,21.20
2011,09,03,13,13,21.30
2011,09,03,13,14,21.30
2011,09,03,13,15,21.30
2011,09,03,13,16,21.40
2011,09,03,13,17,21.50
2011,09,03,13,18,21.60
2011,09,03,13,19,21.70
2011,09,03,13,20,21.80
2011,09,03,13,21,21.80
2011,09,03,13,22,21.70
2011,09,03,13,23,21.70
2011,09,03,13,24,21.60
2011,09,03,13,25,21.60
2011,09,03,13,26,21.60
2011,09,03,13,27,21.70
2011,09,03,13,28,21.80
2011,09,03,13,29,21.70
2011,09,03,13,30,21.70
2011,09,03,13,31,21.60
2011,09,03,13,32,21.50
2011,09,03,13,33,21.50
2011,09,03,13,34,21.40
2011,09,03,13,35,21.40
2011,09,03,13,36,21.50
2011,09,03,13,37,21.50
2011,09,03,13,38,21.50
2011,09,03,13,39,21.60
2011,09,03,13,40,21.60
2011,09,03,13,41,21.60
2011,09,03,13,42,21.50
2011,09,03,13,43,21.40
2011,09,03,13,44,21.30
2011,09,03,13,45,21.20
2011,09,03,13,46,21.20
2011,09,03,13,47,21.20
2011,09,03,13,48,21.30
2011,09,03,13,49,21.40
2011,09,03,13,50,21.60
2011,09,03,13,51,21.70
2011,09,03,13,52,21.80
2011,09,03,13,53,21.90
2011,09,03,13,54,22.00
2011,09,03,13,55,22.10
2011,09,03,13,56,22.10
2011,09,03,13,57,22.10
2011,09,03,13,58,22.00
2011,09,03,13,59,21.90
2011,09,03,14,00,21.80
2011,09,03,14,01,21.60
2011,09,03,14,02,21.50
2011,09,03,14,03,21.40
2011,09,03,14,04,21.40
2011,09,03,14,05,21.30
2011,09,03,14,06,21.30
2011,09,03,14,07,21.30
2011,09,03,14,08,21.40
2011,09,03,14,09,21.40
2011,09,03,14,10,21.50
2011,09,03,14,11,21.40
2011,09,03,14,12,21.40
2011,09,03,14,13,21.30
2011,09,03,14,14,21.40
2011,09,03,14,15,21.40
2011,09,03,14,16,21.50
2011,09,03,14,17,21.60
2011,09,03,14,18,21.70
2011,09,03,14,19,21.80
2011,09,03,14,20,21.80
2011,09,03,14,21,21.80
2011,09,03,14,22,21.70
2011,09,03,14,23,21.70
2011,09,03,14,24,21.70
2011,09,03,14,25,21.80
2011,09,03,14,26,22.00
2011,09,03,14,27,22.10
2011,09,03,14,28,22.20
2011,09,03,14,29,22.20
2011,09,03,14,30,22.10
2011,09,03,14,31,22.10
2011,09,03,14,32,22.10
2011,09,03,14,33,22.20
2011,09,03,14,34,22.10
2011,09,03,14,35,22.10
2011,09,03,14,36,22.10
2011,09,03,14,37,22.10
2011,09,03,14,38,22.20
2011,09,03,14,39,22.20
2011,09,03,14,40,22.30
2011,09,03,14,41,22.40
2011,09,03,14,42,22.40
2011,09,03,14,43,22.50
2011,09,03,14,44,22.50
2011,09,03,14,45,22.50
2011,09,03,14,46,22.50
2011,09,03,14,47,22.60
2011,09,03,14,48,22.60
2011,09,03,14,49,22.70
2011,09,03,14,50,22.70
2011,09,03,14,51,22.70
2011,09,03,14,52,22.80
2011,09,03,14,53,22.80
2011,09,03,14,54,22.70
2011,09,03,14,55,22.70
2011,09,03,14,56,22.60
2011,09,03,14,57,22.50
2011,09,03,14,58,22.40
2011,09,03,14,59,22.30
2011,09,03,15,00,22.30
2011,09,03,15,01,22.30
2011,09,03,15,02,22.30
2011,09,03,15,03,22.30
2011,09,03,15,04,22.40
2011,09,03,15,05,22.50
2011,09,03,15,06,22.60
2011,09,03,15,07,22.60
2011,09,03,15,08,22.60
2011,09,03,15,09,22.50
2011,09,03,15,10,22.40
2011,09,03,15,11,22.30
2011,09,03,15,12,22.30
2011,09,03,15,13,22.20
2011,09,03,15,14,22.10
2011,09,03,15,15,22.10
2011,09,03,15,16,22.20
2011,09,03,15,17,22.20
2011,09,03,15,18,22.20
2011,09,03,15,19,22.20
2011,09,03,15,20,22.20
2011,09,03,15,21,22.30
2011,09,03,15,22,22.30
2011,09,03,15,23,22.40
2011,09,03,15,24,22.50
2011,09,03,15,25,22.60
2011,09,03,15,26,22.60
2011,09,03,15,27,22.70
2011,09,03,15,28,22.70
2011,09,03,15,29,22.80
2011,09,03,15,30,22.90
2011,09,03,15,31,22.90
2011,09,03,15,32,22.90
2011,09,03,15,33,22.90
2011,09,03,15,34,22.90
2011,09,03,15,35,22.90
2011,09,03,15,36,22.80
2011,09,03,15,37,22.70
2011,09,03,15,38,22.70
2011,09,03,15,39,22.70
2011,09,03,15,40,22.70
2011,09,03,15,41,22.60
2011,09,03,15,42,22.50
2011,09,03,15,43,22.50
2011,09,03,15,44,22.50
2011,09,03,15,45,22.60
2011,09,03,15,46,22.60
2011,09,03,15,47,22.70
2011,09,03,15,48,22.70
2011,09,03,15,49,22.80
2011,09,03,15,50,22.80
2011,09,03,15,51,22.90
2011,09,03,15,52,22.90
2011,09,03,15,53,23.00
2011,09,03,15,54,23.00
2011,09,03,15,55,23.00
2011,09,03,15,56,23.00
2011,09,03,15,57,23.10
2011,09,03,15,58,23.10
2011,09,03,15,59,23.20
2011,09,03,16,00,23.30
2011,09,03,16,01,23.30
2011,09,03,16,02,23.30
2011,09,03,16,03,23.30
2011,09,03,16,04,23.20
2011,09,03,16,05,23.20
2011,09,03,16,06,23.20
2011,09,03,16,07,23.20
2011,09,03,16,08,23.10
2011,09,03,16,09,23.10
2011,09,03,16,10,23.10
2011,09,03,16,11,23.10
2011,09,03,16,12,23.10
2011,09,03,16,13,23.10
2011,09,03,16,14,23.20
2011,09,03,16,15,23.20
2011,09,03,16,16,23.30
2011,09,03,16,17,23.40
2011,09,03,16,18,23.40
2011,09,03,16,19,23.30
2011,09,03,16,20,23.40
2011,09,03,16,21,23.40
2011,09,03,16,22,23.30
2011,09,03,16,23,23.30
2011,09,03,16,24,23.20
2011,09,03,16,25,23.20
2011,09,03,16,26,23.30
2011,09,03,16,27,23.30
2011,09,03,16,28,23.40
2011,09,03,16,29,23.40
2011,09,03,16,30,23.50
2011,09,03,16,31,23.50
2011,09,03,16,32,23.60
2011,09,03,16,33,23.70
2011,09,03,16,34,23.70
2011,09,03,16,35,23.70
2011,09,03,16,36,23.70
2011,09,03,16,37,23.80
2011,09,03,16,38,23.80
2011,09,03,16,39,23.80
2011,09,03,16,40,23.90
2011,09,03,16,41,23.90
2011,09,03,16,42,23.90
2011,09,03,16,43,23.80
2011,09,03,16,44,23.80
2011,09,03,16,45,23.80
2011,09,03,16,46,23.80
2011,09,03,16,47,23.80
2011,09,03,16,48,23.80
2011,09,03,16,49,23.90
2011,09,03,16,50,23.90
2011,09,03,16,51,23.80
2011,09,03,16,52,23.80
2011,09,03,16,53,23.70
2011,09,03,16,54,23.70
2011,09,03,16,55,23.70
2011,09,03,16,56,23.70
2011,09,03,16,57,23.70
2011,09,03,16,58,23.60
2011,09,03,16,59,23.50
2011,09,03,17,00,23.40
2011,09,03,17,01,23.40
2011,09,03,17,02,23.40
2011,09,03,17,03,23.40
2011,09,03,17,04,23.40
2011,09,03,17,05,23.30
2011,09,03,17,06,23.30
2011,09,03,17,07,23.30
2011,09,03,17,08,23.20
2011,09,03,17,09,23.20
2011,09,03,17,10,23.20
2011,09,03,17,11,23.20
2011,09,03,17,12,23.20
2011,09,03,17,13,23.10
2011,09,03,17,14,23.10
2011,09,03,17,15,23.10
2011,09,03,17,16,23.10
2011,09,03,17,17,23.00
2011,09,03,17,18,23.00
2011,09,03,17,19,23.10
2011,09,03,17,20,23.10
2011,09,03,17,21,23.20
2011,09,03,17,22,23.20
2011,09,03,17,23,23.30
2011,09,03,17,24,23.40
2011,09,03,17,25,23.40
2011,09,03,17,26,23.50
2011,09,03,17,27,23.60
2011,09,03,17,28,23.60
2011,09,03,17,29,23.60
2011,09,03,17,30,23.60
2011,09,03,17,31,23.60
2011,09,03,17,32,23.60
2011,09,03,17,33,23.60
2011,09,03,17,34,23.60
2011,09,03,17,35,23.60
2011,09,03,17,36,23.60
2011,09,03,17,37,23.60
2011,09,03,17,38,23.60